Regional Weather Roundup
Issued by NWS

Home | Current Version | Previous Version | Graphics & Text | Print | Product List | Glossary On
Versions: 1 2 3 4 5 6 7 8 9 10 11 12 13 14 15 16 17 18 19 20 21 22 23 24 25 26 27 28 29 30 31 32 33 34 35 36 37 38 39 40 41 42 43 44 45 46 47 48 49 50
627
ASUS43 KLSX 311157
RWRMO

WEATHER SUMMARY FOR MISSOURI
NATIONAL WEATHER SERVICE SPRINGFIELD MO
700 AM CDT TUE MAY 31 2016

NOTE: "FAIR" INDICATES FEW OR NO CLOUDS BELOW 12,000 FEET WITH NO
       SIGNIFICANT WEATHER AND/OR OBSTRUCTIONS TO VISIBILITY.
       CURRENT SKY AND/OR WEATHER CONDITIONS ARE NOT AVAILABLE FOR
       CHILLICOTHE AND FARMINGTON.

MOZ001>031-035>038-043-044-053-054-311300-
...NORTHERN AND WESTERN MISSOURI...

CITY           SKY/WX    TMP DP  RH WIND       PRES   REMARKS
KANSAS CTY INT PTSUNNY   64  61  90 SE7       29.94F
6HR MIN TEMP:  60; 6HR MAX TEMP:  65;

LEE`S SUMMIT   CLOUDY    63  61  93 E8        29.96S
6HR MIN TEMP:  62; 6HR MAX TEMP:  64;

ST JOSEPH      CLOUDY    64  61  90 S6        29.92F
6HR MIN TEMP:  62; 6HR MAX TEMP:  66;

CHILLICOTHE      N/A     64  62  93 CALM      29.98F
6HR MIN TEMP:  59; 6HR MAX TEMP:  64; 6HR PCP:  0.02;


$$
MOZ066>068-077>081-088>096-101>105-311300-
...SOUTHWEST MISSOURI...

CITY           SKY/WX    TMP DP  RH WIND       PRES   REMARKS
SPRINGFIELD    CLOUDY    65  62  90 SE9       29.95S
6HR MIN TEMP:  65; 6HR MAX TEMP:  66; 6HR PCP:  0.01;

JOPLIN         CLOUDY    66  64  93 SE5       29.94S
6HR MIN TEMP:  64; 6HR MAX TEMP:  67; 6HR PCP: TRACE;

BRANSON        CLOUDY    63  63 100 CALM      29.98S FOG

$$
MOZ032>034-039>042-045>050-055>058-069>072-311300-
...CENTRAL MISSOURI...

CITY           SKY/WX    TMP DP  RH WIND       PRES   REMARKS
COLUMBIA       NOT AVBL
JEFFERSON CITY CLOUDY    65  64  97 SE3       29.98R
6HR MIN TEMP:  64; 6HR MAX TEMP:  67; 6HR PCP:  0.05;

ROLLA          CLOUDY    63  61  93 E8        29.98R
6HR MIN TEMP:  62; 6HR MAX TEMP:  64; 6HR PCP:  0.02;

SEDALIA        LGT RAIN  65  62  90 S3        29.98R
6HR MIN TEMP:  64; 6HR MAX TEMP:  65; 6HR PCP: TRACE;

WARRENSBURG    HVY RAIN  63  61  94 CALM      29.97R VSB 3/4

$$
MOZ051-052-059>065-311300-
...EAST CENTRAL MISSOURI...

CITY           SKY/WX    TMP DP  RH WIND       PRES   REMARKS
ST LOUIS INTL  LGT RAIN  72  62  71 S15G23    30.01R
6HR MIN TEMP:  70; 6HR MAX TEMP:  72; 6HR PCP: TRACE;


$$
MOZ072>076-082>087-097>100-106>115-311300-
...SOUTH CENTRAL AND SOUTHEAST MISSOURI...

CITY           SKY/WX    TMP DP  RH WIND       PRES   REMARKS
CAPE GIRARDEAU NOT AVBL
POPLAR BLUFF   HVY RAIN  67  65  93 N3        29.99R VSB 1
6HR MIN TEMP:  67; 6HR MAX TEMP:  71; 6HR PCP:  0.17;

WEST PLAINS    PTSUNNY   65  61  87 N3        30.00R
6HR MIN TEMP:  64; 6HR MAX TEMP:  67;


$$



USA.gov is the U.S. government's official web portal to all federal, state and local government web resources and services.